Regional Weather Roundup
Issued by NWS

Home | Current Version | Previous Version | Graphics & Text | Print | Product List | Glossary Off
Versions: 1 2 3 4 5 6 7 8 9 10 11 12 13 14 15 16 17 18 19 20 21 22 23 24 25 26 27 28 29 30 31 32 33 34 35 36 37 38 39 40 41 42 43 44 45 46 47 48 49 50

795
ASUS43 KMPX 141010
RWRMN
WEATHER ROUNDUP FOR MINNESOTA
NATIONAL WEATHER SERVICE TWIN CITIES/CHANHASSEN MN
400 AM CST THU DEC 14 2017


NOTE: "FAIR" INDICATES FEW OR NO CLOUDS BELOW 12,000 FEET WITH NO
SIGNIFICANT WEATHER AND/OR OBSTRUCTIONS TO VISIBILITY. N/A MEANS
CURRENT SKY AND/OR WEATHER CONDITIONS ARE NOT AVAILABLE.

MNZ060>063-068>070-141100-
   Twin Cities Metro

CITY           SKY/WX    TMP DP  RH WIND       PRES   REMARKS
TWIN CITIES    CLOUDY    19  16  88 NW9       30.01S WCI   8
ST PAUL        CLOUDY    20  16  84 NW7       30.02S WCI  11
CRYSTAL        CLOUDY    18  11  74 W6        29.99F WCI  10
BLAINE         FLURRIES  19  16  86 W5        29.99F WCI  13
LAKEVILLE        N/A     10  10 100 CALM      30.00S
EDEN PRAIRIE   CLOUDY    19  14  81 NW6       30.00S WCI  11
SOUTH ST PAUL  CLOUDY    20  16  84 CALM      30.01R
LAKE ELMO      FLURRIES  21  19  93 CALM      30.00F
$$
MNZ001>005-007-008-013>017-022>024-027-028-141100-
   Northwest Minnesota

CITY           SKY/WX    TMP DP  RH WIND       PRES   REMARKS
BEMIDJI        LGT SNOW  12   9  87 W5        29.95R WCI   4
HALLOCK        LGT SNOW  18  16  93 W6        29.98S WCI   9
ROSEAU         LGT SNOW  14   9  79 CALM      29.95S
WARROAD        LGT SNOW  10   7  85 CALM      29.95R
THIEF RVR FALL FLURRIES  13  11  92 SW8       29.97F WCI   2
CROOKSTON      CLOUDY    16  12  86 W3        29.99F
FOSSTON        CLOUDY    10  10 100 W5        29.97F WCI   2
DETROIT LAKES  FLURRIES  16  14  93 NW9       29.97S WCI   4
MOORHEAD       CLOUDY    18  12  79 CALM      30.01F
PARK RAPIDS    CLOUDY    14  10  84 NW7       29.94F WCI   4
MAHNOMEN       FLURRIES  13  11  91 NW6       29.98S WCI   4
$$
MNZ006-009>011-018-025>026-141100-
   North Central Minnesota

CITY           SKY/WX    TMP DP  RH WIND       PRES   REMARKS
BAUDETTE       LGT SNOW  10   7  87 CALM      29.93S FOG
FLAG ISLAND    LGT SNOW  10   7  85 W3        29.93S
INTL FALLS     LGT SNOW  13   9  84 W9        29.93S VSB 3/4 WCI   1
WASKISH        FLURRIES  12  10  92 W6        29.95S WCI   3
BIG FORK       FLURRIES  12  10  92 W5        29.94R WCI   4
LONGVILLE      FLURRIES  12  10  92 CALM      29.95F
GRAND RAPIDS   FLURRIES  15  12  88 W7        29.96R WCI   5
CRANE LAKE     FLURRIES  12  10  92 W5        29.94S WCI   4
ORR            CLOUDY    12  10  92 W5        29.89F WCI   4
COOK           CLOUDY    14  12  92 W8        29.92S WCI   3
WALKER         LGT SNOW  12   9  87 W7        29.95S WCI   2
$$
MNZ012-019>021-037-141100-
   Northeast Minnesota

CITY           SKY/WX    TMP DP  RH WIND       PRES   REMARKS
DULUTH         CLOUDY    11   9  92 NW5       29.92S WCI   3
ELY            CLOUDY    10   9  92 CALM      29.90S
HIBBING        CLOUDY    14  11  87 W5        29.92S WCI   6
EVELETH        FLURRIES  14   9  82 W6        29.93R WCI   5
DULUTH HARBOR  CLOUDY    12   9  85 SW6       29.99S WCI   3
TWO HARBORS    CLOUDY    12   9  85 NW5       29.92S WCI   4
SILVER BAY     PTCLDY   -15 -18  84 CALM      29.91S
GRAND MARAIS     N/A     10  -1  61 VRB3      29.96R
G MARAIS ARPRT CLEAR     -2  -8  78 CALM      29.85R
$$
MNZ029>031-032-039>041-046>048-054>057-064-141100-
   West Central Minnesota

CITY           SKY/WX    TMP DP  RH WIND       PRES   REMARKS
FERGUS FALLS   CLOUDY    16  12  86 N5        30.03S WCI   9
WHEATON        CLOUDY    19  16  86 N5        30.03R WCI  13
MORRIS         CLOUDY    19  16  86 NW7       29.99R WCI  10
ALEXANDRIA     CLOUDY    17  15  92 NW8       29.96F WCI   7
ELBOW LAKE     CLOUDY    16  14  92 NW10      29.99S WCI   4
WADENA         FLURRIES  12  10  92 NW6       29.95F WCI   3
GLENWOOD       MOCLDY    18  16  93 W8        29.98R WCI   7
APPLETON         N/A     21  18  86 N6        30.01R WCI  14
BENSON         CLOUDY    19  14  79 N13       30.01S WCI   7
ORTONVILLE     CLOUDY    21  16  79 CALM      30.00S
MADISON        CLOUDY    23  18  80 CALM      30.01S
WILLMAR        CLOUDY    19  16  86 CALM      29.99F
$$
MNZ033>034-036-042>043-049>051-058-059-141100-
   Central Minnesota

CITY           SKY/WX    TMP DP  RH WIND       PRES   REMARKS
ST CLOUD       CLOUDY    14  12  92 N3        30.00F
SAUK CENTRE    CLOUDY    18  14  86 NW3       29.99R
PAYNESVILLE    CLOUDY    16  15  93 CALM      29.99S
AITKIN         CLOUDY    12  10  92 CALM      29.95F
PINE RIVER     FLURRIES  12   9  85 CALM      29.98F
BRAINERD       CLOUDY    15  11  83 W9        29.97F WCI   3
STAPLES        FLURRIES  14  10  85 W6        29.96F WCI   5
LONG PRAIRIE   CLOUDY    18  12  79 W6        29.98R WCI   9
LITTLE FALLS   CLOUDY    12   9  85 CALM      29.99S
LITCHFIELD     PTCLDY    12  12 100 CALM      29.98F
BUFFALO        CLOUDY    17  12  82 CALM      30.00F
MAPLE LAKE     MOCLDY    17  14  88 CALM      30.00F
HUTCHINSON     PTCLDY    12  10  92 CALM      30.00S
$$
MNZ037-044-045-052-053-141100-
   East Central Minnesota

CITY           SKY/WX    TMP DP  RH WIND       PRES   REMARKS
PRINCETON      FLURRIES  16  12  86 W3        29.99S
MORA           CLOUDY    12   9  85 CALM      30.00S
CAMBRIDGE      LGT SNOW  16  10  79 W3        30.00S
RUSH CITY      CLOUDY    15  12  90 CALM      30.00R
MOOSE LAKE     CLOUDY    18  14  86 CALM      29.95S
HINCKLEY       CLOUDY    18  16  93 CALM      29.98S
CLOQUET        CLOUDY    12   9  85 CALM      29.93F
MCGREGOR       CLOUDY    18  14  86 W3        29.96S
$$
MNZ071>073-080-081-089-090-097-098-141100-
   Southwest Minnesota

CITY           SKY/WX    TMP DP  RH WIND       PRES   REMARKS
MONTEVIDEO     CLOUDY    19  16  86 N6        30.00S WCI  11
GRANITE FALLS  CLOUDY    22  18  83 NW14      30.01F WCI   9
CANBY          CLOUDY    23  19  86 CALM      30.00F
MARSHALL       CLOUDY    20  16  84 N3        30.00F
REDWOOD FALLS  CLOUDY    20  13  74 S3        30.00S
OLIVIA         CLOUDY    21  16  79 CALM      29.99S
PIPESTONE      CLOUDY    23  21  93 CALM      29.96S
WINDOM           N/A     21   9  58 CALM      29.98S
WORTHINGTON    CLOUDY    21  18  88 N8        29.98S WCI  11
JACKSON        CLOUDY    21  16  79 MISG      29.98S
SLAYTON        CLOUDY    21  19  92 NW6       29.98S WCI  13
$$
MNZ065>067-074>077-082>085-091>093-141100-
   South Central Minnesota

CITY           SKY/WX    TMP DP  RH WIND       PRES   REMARKS
MANKATO        CLEAR     12   9  87 N5        30.01S WCI   4
NEW ULM        PTCLDY    14  10  85 CALM      30.00S
ST JAMES       CLOUDY    16  12  86 CALM      30.01S
FAIRMONT       CLEAR     15  12  88 NW5       30.00S WCI   8
GLENCOE        CLEAR     13  12  92 CALM      30.00S
FARIBAULT      CLEAR      9   7  92 CALM      30.00S
OWATONNA       CLOUDY     9   7  92 CALM      29.98F
WASECA         CLOUDY    12  10  92 CALM      30.01S
ALBERT LEA     PTCLDY    12  10  92 N3        29.98R
$$
MNZ078>079-086>088-094>096-141100-
   Southeast Minnesota

CITY           SKY/WX    TMP DP  RH WIND       PRES   REMARKS
ROCHESTER      CLOUDY     9   8  96 W7        29.97R WCI  -2
RED WING       CLOUDY     7   3  85 CALM      30.00F
STANTON        CLEAR      8   5  87 S3        29.99S
DODGE CENTER   CLOUDY    12  10  92 NW6       29.97R WCI   3
WINONA         CLOUDY    10   9  92 NW3       30.03R
AUSTIN         PTCLDY    12  10  92 CALM      29.98R
PRESTON        CLOUDY    11   9  88 NW6       29.97R WCI   2
$$
ABBREVIATIONS USED IN REMARKS
   TC - TEMPERATURES IN CELSIUS
  WCI - WIND CHILL INDEX
   HX - HEAT INDEX
  VSB - VISIBILITY
$$




USA.gov is the U.S. government's official web portal to all federal, state and local government web resources and services.